| time (UTC) | temp C | wind direction | speed KPH | gust KPH | rain 1hr cm | rain 24hr cm | rain mn cm | humidity % | barometer mb |
| 20260504081541 | 6 | 280 | 0.0 | 8.0 | 0.00 | 0.00 | 0.00 | 73 | 1001.9 |
| 20260504050010 | 10 | 280 | 3.2 | 4.8 | 0.00 | 0.00 | 0.00 | 65 | 1002.5 |
| 20260504044514 | 11 | 280 | 3.2 | 11.3 | 0.00 | 0.00 | 0.00 | 63 | 1002.7 |
| 20260504043013 | 11 | 280 | 6.4 | 12.9 | 0.00 | 0.00 | 0.00 | 62 | 1003.0 |
| 20260504041532 | 11 | 280 | 6.4 | 8.0 | 0.00 | 0.00 | 0.00 | 63 | 1003.2 |
| 20260504040015 | 11 | 280 | 6.4 | 8.0 | 0.00 | 0.00 | 0.00 | 60 | 1003.2 |
| 20260504034510 | 13 | 280 | 1.6 | 6.4 | 0.00 | 0.00 | 0.00 | 55 | 1003.0 |
| 20260504033008 | 13 | 280 | 1.6 | 6.4 | 0.00 | 0.00 | 0.00 | 53 | 1002.9 |
| 20260504031508 | 15 | 280 | 6.4 | 14.5 | 0.00 | 0.00 | 0.00 | 51 | 1003.0 |
| 20260504030006 | 13 | 280 | 4.8 | 9.7 | 0.00 | 0.00 | 0.00 | 54 | 1002.7 |
| 20260504024505 | 14 | 280 | 1.6 | 6.4 | 0.00 | 0.00 | 0.00 | 53 | 1002.9 |
| 20260504023005 | 15 | 280 | 3.2 | 6.4 | 0.00 | 0.00 | 0.00 | 50 | 1003.0 |
| 20260504021504 | 15 | 280 | 3.2 | 9.7 | 0.00 | 0.00 | 0.00 | 47 | 1002.9 |
| 20260504020005 | 16 | 280 | 4.8 | 9.7 | 0.00 | 0.00 | 0.00 | 46 | 1002.9 |
| 20260504014602 | 17 | 280 | 4.8 | 11.3 | 0.00 | 0.00 | 0.00 | 45 | 1003.2 |
| 20260504013126 | 17 | 280 | 3.2 | 8.0 | 0.00 | 0.00 | 0.00 | 43 | 1003.2 |
| 20260504011557 | 18 | 280 | 4.8 | 11.3 | 0.00 | 0.00 | 0.00 | 42 | 1003.4 |
| 20260504010058 | 18 | 280 | 4.8 | 9.7 | 0.00 | 0.00 | 0.00 | 40 | 1003.8 |
| 20260504004555 | 19 | 280 | 8.0 | 12.9 | 0.00 | 0.00 | 0.00 | 38 | 1003.9 |
| 20260504003053 | 20 | 280 | 6.4 | 12.9 | 0.00 | 0.00 | 0.00 | 37 | 1004.2 |
| 20260504001553 | 21 | 280 | 8.0 | 19.3 | 0.00 | 0.00 | 0.00 | 35 | 1004.4 |
| 20260504000050 | 21 | 280 | 9.7 | 22.5 | 0.00 | 0.00 | 0.00 | 32 | 1004.3 |
| 20260503234548 | 20 | 280 | 16.1 | 30.6 | 0.00 | 0.00 | 0.00 | 33 | 1004.7 |
| 20260503233046 | 21 | 280 | 11.3 | 27.4 | 0.00 | 0.00 | 0.00 | 29 | 1004.8 |
| 20260503231543 | 21 | 280 | 19.3 | 29.0 | 0.00 | 0.00 | 0.00 | 28 | 1005.2 |
| 20260503230042 | 22 | 280 | 9.7 | 19.3 | 0.00 | 0.00 | 0.00 | 30 | 1005.2 |
| 20260503224538 | 21 | 280 | 9.7 | 20.9 | 0.00 | 0.00 | 0.00 | 28 | 1005.2 |
| 20260503223036 | 21 | 280 | 16.1 | 24.1 | 0.00 | 0.00 | 0.00 | 29 | 1005.6 |
| 20260503221533 | 21 | 280 | 9.7 | 20.9 | 0.00 | 0.00 | 0.00 | 29 | 1005.8 |
| 20260503220030 | 21 | 280 | 16.1 | 29.0 | 0.00 | 0.00 | 0.00 | 27 | 1006.2 |
| 20260503214537 | 21 | 280 | 12.9 | 24.1 | 0.00 | 0.00 | 0.00 | 29 | 1006.5 |
| 20260503213025 | 21 | 280 | 11.3 | 17.7 | 0.00 | 0.00 | 0.00 | 28 | 1006.9 |
| 20260503211522 | 20 | 280 | 6.4 | 25.7 | 0.00 | 0.00 | 0.00 | 28 | 1007.1 |
| 20260503210019 | 21 | 280 | 14.5 | 27.4 | 0.00 | 0.00 | 0.00 | 28 | 1007.5 |
| 20260503204516 | 21 | 280 | 16.1 | 24.1 | 0.00 | 0.00 | 0.00 | 26 | 1007.9 |
| 20260503203014 | 21 | 280 | 9.7 | 30.6 | 0.00 | 0.00 | 0.00 | 26 | 1008.0 |
| 20260503201510 | 20 | 280 | 17.7 | 27.4 | 0.00 | 0.00 | 0.00 | 26 | 1008.5 |
| 20260503200010 | 20 | 280 | 9.7 | 22.5 | 0.00 | 0.00 | 0.00 | 26 | 1008.6 |
| 20260503194508 | 20 | 280 | 14.5 | 29.0 | 0.00 | 0.00 | 0.00 | 27 | 1008.8 |
| 20260503193003 | 20 | 280 | 12.9 | 24.1 | 0.00 | 0.00 | 0.00 | 25 | 1009.2 |
| 20260503191501 | 20 | 280 | 12.9 | 22.5 | 0.00 | 0.00 | 0.00 | 26 | 1009.5 |
| 20260503190057 | 19 | 280 | 6.4 | 17.7 | 0.00 | 0.00 | 0.00 | 27 | 1009.9 |
| 20260503184603 | 19 | 280 | 6.4 | 14.5 | 0.00 | 0.00 | 0.00 | 27 | 1010.2 |
| 20260503183053 | 18 | 280 | 8.0 | 17.7 | 0.00 | 0.00 | 0.00 | 28 | 1010.5 |
| 20260503181554 | 18 | 280 | 9.7 | 14.5 | 0.00 | 0.00 | 0.00 | 28 | 1010.7 |
| 20260503180150 | 18 | 280 | 1.6 | 11.3 | 0.00 | 0.00 | 0.00 | 27 | 1010.9 |
| 20260503174553 | 18 | 280 | 9.7 | 16.1 | 0.00 | 0.00 | 0.00 | 28 | 1011.3 |
| 20260503173046 | 18 | 280 | 1.6 | 8.0 | 0.00 | 0.00 | 0.00 | 27 | 1011.6 |
| 20260503171544 | 18 | 280 | 3.2 | 9.7 | 0.00 | 0.00 | 0.00 | 27 | 1011.8 |